When you browse on this site, cookies collect data to enhance your experience and personalize the content and advertising you see.
Visit our Privacy Policy to learn more. By continuing to use the site, you agree to this use of cookies and data.
  • In Deutschland
  • Länderverzeichnis
  • Für 7 Tage
  • Wassertemperatur
  • Satellitenkarten
  • Wetterkarte
  • Widgets
  • user-avatar
    Anmelden

    Stündliche Wetter Nauchnyi

    Heute, 18 November, Sonntag

    Zeit Temperatur Niederschläge Wind Luftdruck Luftfeuchtigkeit
    00:00 +2°C° 0 mm 3 m/S 725 mmHg 92%
    01:00 +2°C° 0 mm 3 m/S 724 mmHg 92%
    02:00 +2°C° 0 mm 3 m/S 724 mmHg 93%
    03:00 +1°C° 0 mm 3 m/S 724 mmHg 93%
    04:00 +1°C° 0 mm 3 m/S 724 mmHg 94%
    05:00 +1°C° 0 mm 3 m/S 724 mmHg 94%
    06:00 +1°C° 0 mm 3 m/S 724 mmHg 94%
    07:00 +1°C° 0 mm 3 m/S 723 mmHg 93%
    08:00 +1°C° 0 mm 3 m/S 723 mmHg 92%
    09:00 +3°C° 0 mm 2 m/S 723 mmHg 89%
    10:00 +4°C° 0 mm 2 m/S 723 mmHg 85%
    11:00 +4°C° 0 mm 2 m/S 723 mmHg 82%
    12:00 +4°C° 0.1 mm 2 m/S 723 mmHg 81%
    13:00 +5°C° 0.1 mm 2 m/S 722 mmHg 80%
    14:00 +5°C° 0 mm 2 m/S 722 mmHg 81%
    15:00 +4°C° 0 mm 3 m/S 722 mmHg 83%
    16:00 +3°C° 0 mm 3 m/S 722 mmHg 85%
    17:00 +3°C° 0 mm 3 m/S 721 mmHg 87%
    18:00 +3°C° 0 mm 3 m/S 721 mmHg 88%
    19:00 +3°C° 0 mm 4 m/S 721 mmHg 89%
    20:00 +3°C° 0 mm 4 m/S 721 mmHg 90%
    21:00 +3°C° 0 mm 4 m/S 721 mmHg 90%
    22:00 +1°C° 0 mm 5 m/S 720 mmHg 90%
    23:00 +1°C° 0 mm 5 m/S 720 mmHg 90%

    Morgen, 19 November, Montag

    Zeit Temperatur Niederschläge Wind Luftdruck Luftfeuchtigkeit
    00:00 +1°C° 0 mm 5 m/S 720 mmHg 91%
    01:00 +1°C° 0 mm 5 m/S 719 mmHg 91%
    02:00 +1°C° 0 mm 5 m/S 719 mmHg 91%
    03:00 +1°C° 0 mm 5 m/S 719 mmHg 91%
    04:00 +1°C° 0 mm 6 m/S 718 mmHg 90%
    05:00 +1°C° 0 mm 6 m/S 718 mmHg 90%
    06:00 +1°C° 0.2 mm 6 m/S 718 mmHg 88%
    07:00 +2°C° 0.2 mm 6 m/S 718 mmHg 87%
    08:00 +2°C° 0.2 mm 6 m/S 717 mmHg 85%
    09:00 +2°C° 0.6 mm 7 m/S 717 mmHg 85%
    10:00 +3°C° 0.6 mm 7 m/S 717 mmHg 86%
    11:00 +3°C° 0.6 mm 7 m/S 717 mmHg 86%
    12:00 +4°C° 0.8 mm 7 m/S 716 mmHg 87%
    13:00 +4°C° 0.8 mm 6 m/S 716 mmHg 88%
    14:00 +5°C° 0.8 mm 6 m/S 716 mmHg 89%
    15:00 +7°C° 0.7 mm 6 m/S 716 mmHg 90%
    16:00 +7°C° 0.7 mm 6 m/S 715 mmHg 90%
    17:00 +8°C° 0.7 mm 6 m/S 715 mmHg 90%
    18:00 +8°C° 0.9 mm 6 m/S 715 mmHg 90%
    19:00 +9°C° 0.9 mm 6 m/S 715 mmHg 90%
    20:00 +9°C° 0.9 mm 6 m/S 715 mmHg 90%
    21:00 +9°C° 0.5 mm 6 m/S 715 mmHg 91%
    22:00 +9°C° 0.5 mm 6 m/S 715 mmHg 93%
    23:00 +9°C° 0.5 mm 7 m/S 715 mmHg 94%

    übermorgen, 20 November, Dienstag

    Zeit Temperatur Niederschläge Wind Luftdruck Luftfeuchtigkeit
    00:00 +8°C° 0 mm 7 m/S 715 mmHg 93%
    01:00 +8°C° 0 mm 7 m/S 715 mmHg 92%
    02:00 +6°C° 0 mm 8 m/S 715 mmHg 91%
    03:00 +6°C° 0 mm 8 m/S 715 mmHg 90%
    04:00 +5°C° 0 mm 8 m/S 715 mmHg 90%
    05:00 +5°C° 0 mm 8 m/S 715 mmHg 90%
    06:00 +4°C° 0.1 mm 8 m/S 716 mmHg 90%
    07:00 +4°C° 0.1 mm 8 m/S 716 mmHg 90%
    08:00 +2°C° 0.1 mm 8 m/S 717 mmHg 89%
    09:00 +2°C° 0 mm 8 m/S 717 mmHg 89%
    10:00 +2°C° 0 mm 8 m/S 717 mmHg 88%
    11:00 +2°C° 0 mm 8 m/S 718 mmHg 87%
    12:00 +3°C° 0 mm 7 m/S 718 mmHg 87%
    13:00 +3°C° 0 mm 7 m/S 718 mmHg 86%
    14:00 +3°C° 0 mm 6 m/S 718 mmHg 86%
    15:00 +3°C° 0 mm 5 m/S 718 mmHg 86%
    16:00 +2°C° 0 mm 5 m/S 719 mmHg 87%
    17:00 +3°C° 0 mm 4 m/S 719 mmHg 87%
    18:00 +3°C° 0 mm 3 m/S 719 mmHg 88%
    19:00 +3°C° 0 mm 3 m/S 719 mmHg 89%
    20:00 +3°C° 0 mm 2 m/S 719 mmHg 90%
    21:00 +3°C° 0 mm 2 m/S 719 mmHg 90%
    22:00 +3°C° 0 mm 2 m/S 719 mmHg 90%
    23:00 +4°C° 0 mm 1 m/S 719 mmHg 90%

    21 November, Mittwoch

    Zeit Temperatur Niederschläge Wind Luftdruck Luftfeuchtigkeit
    00:00 +3°C° 0 mm 2 m/S 719 mmHg 89%
    01:00 +3°C° 0 mm 2 m/S 719 mmHg 89%
    02:00 +3°C° 0 mm 2 m/S 719 mmHg 89%
    03:00 +2°C° 0 mm 3 m/S 718 mmHg 90%
    04:00 +2°C° 0 mm 3 m/S 718 mmHg 91%
    05:00 +2°C° 0 mm 3 m/S 718 mmHg 93%
    06:00 +2°C° 0.2 mm 3 m/S 718 mmHg 93%
    07:00 +3°C° 0.2 mm 3 m/S 718 mmHg 92%
    08:00 +3°C° 0.2 mm 3 m/S 717 mmHg 92%
    09:00 +3°C° 0.5 mm 3 m/S 717 mmHg 90%
    10:00 +4°C° 0.5 mm 3 m/S 717 mmHg 89%
    11:00 +4°C° 0.5 mm 4 m/S 717 mmHg 87%
    12:00 +4°C° 0.7 mm 4 m/S 716 mmHg 88%
    13:00 +4°C° 0.7 mm 4 m/S 716 mmHg 88%
    14:00 +3°C° 0.7 mm 5 m/S 716 mmHg 89%
    15:00 +3°C° 0.4 mm 5 m/S 716 mmHg 90%
    16:00 +2°C° 0.4 mm 5 m/S 716 mmHg 91%
    17:00 +2°C° 0.4 mm 5 m/S 716 mmHg 92%
    18:00 +2°C° 0.3 mm 6 m/S 716 mmHg 91%
    19:00 +2°C° 0.3 mm 6 m/S 716 mmHg 91%
    20:00 +2°C° 0.3 mm 7 m/S 716 mmHg 91%
    21:00 +2°C° 0.2 mm 7 m/S 716 mmHg 90%
    22:00 +2°C° 0.2 mm 7 m/S 716 mmHg 89%
    23:00 0°C° 0.2 mm 7 m/S 716 mmHg 88%

    22 November, Donnerstag

    Zeit Temperatur Niederschläge Wind Luftdruck Luftfeuchtigkeit
    00:00 0°C° 0.2 mm 7 m/S 716 mmHg 87%
    01:00 0°C° 0.2 mm 7 m/S 716 mmHg 86%
    02:00 0°C° 0.2 mm 7 m/S 716 mmHg 86%
    03:00 -1°C° 0.1 mm 7 m/S 716 mmHg 86%
    04:00 -1°C° 0.1 mm 7 m/S 717 mmHg 85%
    05:00 -1°C° 0.1 mm 8 m/S 717 mmHg 85%
    06:00 -1°C° 0 mm 8 m/S 717 mmHg 85%
    07:00 -1°C° 0 mm 8 m/S 717 mmHg 85%
    08:00 -1°C° 0 mm 8 m/S 718 mmHg 84%
    09:00 -1°C° 0 mm 8 m/S 718 mmHg 81%
    10:00 0°C° 0 mm 8 m/S 718 mmHg 78%
    11:00 0°C° 0 mm 8 m/S 719 mmHg 74%
    12:00 0°C° 0 mm 7 m/S 719 mmHg 73%
    13:00 0°C° 0 mm 7 m/S 718 mmHg 72%
    14:00 -1°C° 0 mm 7 m/S 718 mmHg 71%
    15:00 -1°C° 0 mm 7 m/S 719 mmHg 73%
    16:00 -2°C° 0 mm 6 m/S 719 mmHg 75%
    17:00 -3°C° 0 mm 6 m/S 719 mmHg 77%
    18:00 -3°C° 0 mm 6 m/S 719 mmHg 78%
    19:00 -4°C° 0 mm 6 m/S 720 mmHg 78%
    20:00 -4°C° 0 mm 6 m/S 720 mmHg 79%
    21:00 -4°C° 0 mm 5 m/S 720 mmHg 80%
    22:00 -4°C° 0 mm 5 m/S 720 mmHg 81%
    23:00 -5°C° 0 mm 5 m/S 721 mmHg 83%

    23 November, Freitag

    Zeit Temperatur Niederschläge Wind Luftdruck Luftfeuchtigkeit
    00:00 -5°C° 0 mm 5 m/S 721 mmHg 84%
    01:00 -5°C° 0 mm 5 m/S 721 mmHg 85%
    02:00 -5°C° 0 mm 5 m/S 721 mmHg 86%
    03:00 -5°C° 0 mm 5 m/S 721 mmHg 86%
    04:00 -5°C° 0 mm 5 m/S 722 mmHg 85%
    05:00 -6°C° 0 mm 5 m/S 722 mmHg 85%
    06:00 -5°C° 0 mm 4 m/S 722 mmHg 82%
    07:00 -4°C° 0 mm 4 m/S 723 mmHg 80%
    08:00 -4°C° 0 mm 4 m/S 723 mmHg 77%
    09:00 -3°C° 0 mm 4 m/S 723 mmHg 72%
    10:00 -2°C° 0 mm 4 m/S 724 mmHg 66%
    11:00 0°C° 0 mm 4 m/S 724 mmHg 60%
    12:00 0°C° 0 mm 4 m/S 724 mmHg 60%
    13:00 0°C° 0 mm 4 m/S 724 mmHg 60%
    14:00 0°C° 0 mm 4 m/S 724 mmHg 61%
    15:00 -1°C° 0 mm 4 m/S 724 mmHg 67%
    16:00 -2°C° 0 mm 4 m/S 724 mmHg 73%
    17:00 -3°C° 0 mm 4 m/S 725 mmHg 79%
    18:00 -3°C° 0 mm 4 m/S 725 mmHg 80%
    19:00 -3°C° 0 mm 4 m/S 725 mmHg 82%
    20:00 -3°C° 0 mm 4 m/S 725 mmHg 84%
    21:00 -3°C° 0 mm 4 m/S 725 mmHg 85%
    22:00 -3°C° 0 mm 4 m/S 725 mmHg 87%
    23:00 -3°C° 0 mm 4 m/S 725 mmHg 88%
    Mehr zeigen